Regional Weather Roundup
Issued by NWS

Home | Current Version | Previous Version | Graphics & Text | Print | Product List | Glossary On
Versions: 1 2 3 4 5 6 7 8 9 10 11 12 13 14 15 16 17 18 19 20 21 22 23 24 25 26 27 28 29 30 31 32 33 34 35 36 37 38 39 40 41 42 43 44 45 46 47 48 49 50
000
ASUS43 KLMK 291710
RWRKY
KENTUCKY REGIONAL WEATHER ROUNDUP
NATIONAL WEATHER SERVICE LOUISVILLE KY
100 PM EDT FRI JUL 29 2016

NOTE "FAIR" INDICATES FEW OR NO CLOUDS BELOW 12,000 FEET
WITH NO SIGNIFICANT WEATHER AND/OR OBSTRUCTIONS TO VISIBILITY.

KYZ001>023-026-027-061>063-070>075-291800-
WESTERN AND SOUTH CENTRAL KENTUCKY

CITY           SKY/WX    TMP DP  RH WIND       PRES   REMARKS
PADUCAH        CLOUDY    81  72  74 MISG      29.96R
HENDERSON      CLOUDY    82  73  74 SW5       29.93F
OWENSBORO      PTSUNNY   82  75  79 SW6       29.96F
HOPKINSVILLE   MOSUNNY   83  76  78 SW13      29.95F HX  91
BOWLING GREEN  CLOUDY    77  72  84 W6        29.99S
GLASGOW        PTSUNNY   74  73  99 SW5       29.98F
$$

KYZ024-025-028>034-038-045-046-053-291800-
NORTH CENTRAL KENTUCKY

CITY           SKY/WX    TMP DP  RH WIND       PRES   REMARKS
LOUISVILLE/SDF PTSUNNY   86  70  58 W5        29.93F HX  90
LOUISVILLE/LOU MOSUNNY   84  70  62 VRB3      29.94F
FORT KNOX      LGT RAIN  80  73  79 W7        29.95S
$$

KYZ035>037-039>044-047>052-055>060-089>105-291800-
NORTHEAST KENTUCKY

CITY           SKY/WX    TMP DP  RH WIND       PRES   REMARKS
LEXINGTON      MOSUNNY   83  70  64 SW6       29.98S
COVINGTON      PTSUNNY   82  71  69 CALM      29.97S
FRANKFORT      PTSUNNY   83  70  64 NW5       29.96S
$$

KYZ054-064>069-076>088-106>120-291800-
SOUTHEAST KENTUCKY

CITY           SKY/WX    TMP DP  RH WIND       PRES   REMARKS
JACKSON        CLOUDY    78  71  79 CALM      30.01S
LONDON         CLOUDY    80  69  69 SW7       30.00F
SOMERSET       CLOUDY    79  70  73 CALM      29.99F
MIDDLESBORO    MOSUNNY   82  71  69 W3        30.01F
MONTICELLO     HVY RAIN N/A N/A N/A VRB5G20   30.00F
$$





USA.gov is the U.S. government's official web portal to all federal, state and local government web resources and services.